Location: Lewisville
(33.0462°N, 96.9942°W)
Time: 20:03:05
(UTC-05:00)

X-37B - Pass Details

Date: 09 August 2020
Orbit: 382 x 392 km, 45.0° (Epoch: 15 October)

Event Time Altitude Azimuth Distance (km) Brightness Sun altitude
Rises 20:55:50 0° 259° (W) 2,265 5.5 -8.0°
Reaches altitude 10° 20:58:04 10° 271° (W) 1,410 4.6 -8.4°
Maximum altitude 21:00:54 29° 334° (NNW) 745 2.6 -9.0°
Drops below altitude 10° 21:03:43 10° 37° (NE) 1,410 3.3 -9.5°
Sets 21:05:57 0° 49° (NE) 2,263 4.2 -9.9°
